CST,Max TemperatureF,Mean TemperatureF,Min TemperatureF,Max Dew PointF,MeanDew PointF,Min DewpointF,Max Humidity, Mean Humidity, Min Humidity, Max Sea Level PressureIn, Mean Sea Level PressureIn, Min Sea Level PressureIn, Max VisibilityMiles, Mean VisibilityMiles, Min VisibilityMiles, Max Wind SpeedMPH, Mean Wind SpeedMPH, Max Gust SpeedMPH,PrecipitationIn, CloudCover, Events, WindDirDegrees
2012-11-1,80,60,41,52,46,39,100,70,30,30.02,29.97,29.92,10,10,2,8,2,,0.00,1,,37
2012-11-2,82,64,46,57,51,45,94,63,37,29.95,29.90,29.83,10,10,10,21,6,26,0.00,0,,175
2012-11-3,66,56,44,46,40,37,76,60,39,30.18,30.11,29.97,10,10,5,17,10,21,0.00,0,,15
2012-11-4,69,52,35,43,38,34,93,65,31,30.21,30.14,30.06,10,8,1,9,3,,0.00,0,,25
2012-11-5,68,54,39,45,40,36,93,64,32,30.14,30.10,30.06,10,10,5,25,7,33,0.00,0,,339
2012-11-6,73,53,33,45,39,32,100,70,33,30.16,30.12,30.06,10,10,10,16,4,18,0.00,0,,301
2012-11-7,71,53,35,43,36,34,100,60,28,30.21,30.13,30.05,10,10,10,10,4,,0.00,0,,144
2012-11-8,78,63,48,55,47,36,66,53,42,30.04,29.94,29.85,10,10,10,22,11,31,0.00,0,,159
2012-11-9,78,69,60,63,57,50,88,62,50,29.93,29.87,29.79,10,10,10,23,13,32,0.00,1,,177
2012-11-10,78,70,62,61,59,55,88,67,54,29.91,29.80,29.70,10,10,10,30,17,37,0.00,2,,173
2012-11-11,69,50,32,63,42,28,100,83,66,30.31,30.00,29.71,10,10,4,24,13,30,0.95,5,Rain,353
2012-11-12,53,40,28,32,29,27,100,71,38,30.51,30.44,30.32,10,10,10,7,4,,0.00,0,,244
2012-11-13,55,42,30,34,30,27,93,64,36,30.48,30.40,30.29,10,10,10,14,4,18,0.00,0,,168
2012-11-14,60,46,32,34,31,28,87,60,34,30.38,30.31,30.24,10,10,10,14,5,18,0.00,0,,160
2012-11-15,62,48,33,45,37,30,87,67,42,30.35,30.26,30.21,10,10,10,15,6,20,0.00,1,,144
2012-11-16,62,50,37,41,35,32,93,65,34,30.43,30.37,30.33,10,10,10,10,3,,0.00,2,,123
2012-11-17,62,48,35,37,33,32,87,61,34,30.38,30.31,30.24,10,10,10,15,6,20,0.00,0,,144
2012-11-18,68,55,42,45,38,32,72,55,39,30.24,30.18,30.10,10,10,10,20,10,26,0.00,4,Rain,155
2012-11-19,73,62,50,55,50,43,94,70,53,30.15,30.12,30.08,10,10,10,13,7,20,0.00,2,,174
2012-11-20,73,56,39,59,51,39,100,85,53,30.24,30.20,30.14,10,6,0,7,2,,0.00,0,Fog,13
2012-11-21,77,58,39,59,47,39,100,73,36,30.25,30.16,30.04,10,8,1,18,5,23,0.00,0,,175
2012-11-22,75,67,59,57,52,41,82,62,48,30.23,30.02,29.92,10,10,10,29,12,39,0.00,1,,189
2012-11-23,59,46,30,41,32,27,87,59,41,30.53,30.44,30.24,10,10,10,24,17,33,0.00,2,,13
2012-11-24,59,42,24,30,27,23,93,61,29,30.45,30.23,30.01,10,10,10,20,5,26,0.00,0,,188
2012-11-25,68,52,35,43,35,25,87,58,39,30.00,29.88,29.81,10,10,10,12,6,,0.00,0,,168
2012-11-26,51,43,33,37,33,27,93,73,50,30.38,30.07,29.83,10,10,10,31,12,37,0.00,1,,6
2012-11-27,51,40,28,32,30,27,100,75,44,30.47,30.37,30.29,10,9,5,15,7,20,0.00,0,,46
2012-11-28,62,46,30,41,35,28,93,69,42,30.36,30.27,30.17,10,10,10,15,7,22,0.00,0,,147
2012-11-29,68,54,41,50,42,37,87,63,46,30.17,30.08,29.98,10,10,10,20,8,30,0.00,0,,164
2012-11-30,71,60,48,57,51,43,100,80,50,30.07,30.01,29.96,10,9,3,16,8,20,0.00,0,,154